Satellite: OKEAN-4 Catalog number: 23317 Epoch time: 10287.76026685 Element set: 365 Inclination: 082.5398 deg RA of node: 242.2388 deg Eccentricity: 0.0021093 Arg of perigee: 204.0155 deg Mean anomaly: 156.0082 deg Mean motion: 14.82874225 rev/day Decay rate: 2.68e-06 rev/day^2 Epoch rev: 86417 Checksum: 305
Satellite: NOAA-14 Catalog number: 23455 Epoch time: 10287.46228338 Element set: 231 Inclination: 098.8715 deg RA of node: 007.3301 deg Eccentricity: 0.0008548 Arg of perigee: 257.6094 deg Mean anomaly: 102.4130 deg Mean motion: 14.13796988 rev/day Decay rate: 3.3e-07 rev/day^2 Epoch rev: 81435 Checksum: 299
Satellite: NOAA-15 Catalog number: 25338 Epoch time: 10287.46247027 Element set: 558 Inclination: 098.6322 deg RA of node: 272.3234 deg Eccentricity: 0.0011672 Arg of perigee: 087.7071 deg Mean anomaly: 272.5439 deg Mean motion: 14.24858825 rev/day Decay rate: -1.10e-06 rev/day^2 Epoch rev: 64573 Checksum: 312
Satellite: RESURS Catalog number: 25394 Epoch time: 10287.71056236 Element set: 626 Inclination: 098.3032 deg RA of node: 299.2745 deg Eccentricity: 0.0000593 Arg of perigee: 188.0903 deg Mean anomaly: 172.0269 deg Mean motion: 14.24211926 rev/day Decay rate: 1.0e-08 rev/day^2 Epoch rev: 63736 Checksum: 290
Satellite: FENGYUN1 Catalog number: 25730 Epoch time: 10287.81118491 Element set: 159 Inclination: 098.7961 deg RA of node: 249.7056 deg Eccentricity: 0.0021145 Arg of perigee: 290.7455 deg Mean anomaly: 069.1462 deg Mean motion: 14.08329243 rev/day Decay rate: 8.28e-06 rev/day^2 Epoch rev: 58852 Checksum: 321
Satellite: OKEAN-0 Catalog number: 25860 Epoch time: 10286.56150876 Element set: 0124 Inclination: 097.8487 deg RA of node: 255.3372 deg Eccentricity: 0.0001941 Arg of perigee: 074.4775 deg Mean anomaly: 285.6657 deg Mean motion: 14.73669969 rev/day Decay rate: 8.1e-07 rev/day^2 Epoch rev: 60433 Checksum: 337
Satellite: NOAA-16 Catalog number: 26536 Epoch time: 10287.43649241 Element set: 34 Inclination: 099.1660 deg RA of node: 307.6938 deg Eccentricity: 0.0010569 Arg of perigee: 007.4723 deg Mean anomaly: 352.6593 deg Mean motion: 14.12579250 rev/day Decay rate: -2.01e-06 rev/day^2 Epoch rev: 51866 Checksum: 307
Satellite: NOAA-17 Catalog number: 27453 Epoch time: 10287.50132799 Element set: 24 Inclination: 098.4164 deg RA of node: 333.0568 deg Eccentricity: 0.0012279 Arg of perigee: 144.7096 deg Mean anomaly: 215.4899 deg Mean motion: 14.24199446 rev/day Decay rate: 2.08e-06 rev/day^2 Epoch rev: 43168 Checksum: 325
Satellite: NOAA-18 Catalog number: 28654 Epoch time: 10287.54059422 Element set: 514 Inclination: 098.9634 deg RA of node: 233.5252 deg Eccentricity: 0.0015194 Arg of perigee: 077.4451 deg Mean anomaly: 282.8398 deg Mean motion: 14.11399099 rev/day Decay rate: 3.64e-06 rev/day^2 Epoch rev: 27827 Checksum: 337
Satellite: NOAA-19 Catalog number: 33591 Epoch time: 10287.48370890 Element set: 710 Inclination: 098.7994 deg RA of node: 227.1187 deg Eccentricity: 0.0013598 Arg of perigee: 315.0690 deg Mean anomaly: 044.9380 deg Mean motion: 14.11091057 rev/day Decay rate: -1.0e-07 rev/day^2 Epoch rev: 8673 Checksum: 314
/EX SB KEPS @ AMSAT $ORB10287.M Orbital Elements 10287.MISC
HR AMSAT ORBITAL ELEMENTS FOR MANNED AND MISCELLANEOUS SATELLITES FROM WA5QGD FORT WORTH,TX October 14, 2010 BID: ORB10287.M TO ALL RADIO AMATEURS BT
Satellite: HUBBLE Catalog number: 20580 Epoch time: 10286.13501496 Element set: 659 Inclination: 028.4688 deg RA of node: 189.8229 deg Eccentricity: 0.0003208 Arg of perigee: 020.5896 deg Mean anomaly: 339.4857 deg Mean motion: 15.01059772 rev/day Decay rate: 6.38e-06 rev/day^2 Epoch rev: 92249 Checksum: 327
Satellite: ISS Catalog number: 25544 Epoch time: 10287.98463575 Element set: 71 Inclination: 051.6475 deg RA of node: 337.6888 deg Eccentricity: 0.0007989 Arg of perigee: 094.5997 deg Mean anomaly: 328.8197 deg Mean motion: 15.71998344 rev/day Decay rate: 1.1801e-04 rev/day^2 Epoch rev: 68231 Checksum: 367
Satellite: CO-58 Catalog number: 28895 Epoch time: 10287.71680889 Element set: 704 Inclination: 097.9939 deg RA of node: 168.1150 deg Eccentricity: 0.0016741 Arg of perigee: 270.8452 deg Mean anomaly: 089.0876 deg Mean motion: 14.59945709 rev/day Decay rate: 1.62e-06 rev/day^2 Epoch rev: 26442 Checksum: 364
Satellite: FALCON Catalog number: 30776 Epoch time: 10286.79395025 Element set: 935 Inclination: 035.4333 deg RA of node: 044.1032 deg Eccentricity: 0.0000184 Arg of perigee: 023.5969 deg Mean anomaly: 336.4755 deg Mean motion: 15.03870214 rev/day Decay rate: 9.97e-06 rev/day^2 Epoch rev: 19792 Checksum: 305
Satellite: MAST Catalog number: 31126 Epoch time: 10286.54938913 Element set: 0987 Inclination: 097.9243 deg RA of node: 322.3689 deg Eccentricity: 0.0093518 Arg of perigee: 217.7967 deg Mean anomaly: 141.6664 deg Mean motion: 14.53628644 rev/day Decay rate: 1.46e-06 rev/day^2 Epoch rev: 18525 Checksum: 340
Satellite: CAPE1 Catalog number: 31130 Epoch time: 10286.57729447 Element set: 0006 Inclination: 097.9275 deg RA of node: 319.5774 deg Eccentricity: 0.0101658 Arg of perigee: 226.2967 deg Mean anomaly: 132.9774 deg Mean motion: 14.52232930 rev/day Decay rate: 2.11e-06 rev/day^2 Epoch rev: 18484 Checksum: 309
Satellite: COMPASS Catalog number: 32787 Epoch time: 10286.86955922 Element set: 802 Inclination: 097.8832 deg RA of node: 349.9195 deg Eccentricity: 0.0014572 Arg of perigee: 259.2819 deg Mean anomaly: 100.6786 deg Mean motion: 14.81996090 rev/day Decay rate: 6.29e-06 rev/day^2 Epoch rev: 13307 Checksum: 347
Satellite: AAUSAT2 Catalog number: 32788 Epoch time: 10286.18579667 Element set: 0792 Inclination: 097.8822 deg RA of node: 349.4011 deg Eccentricity: 0.0013980 Arg of perigee: 264.1349 deg Mean anomaly: 095.8269 deg Mean motion: 14.82143977 rev/day Decay rate: 2.58e-06 rev/day^2 Epoch rev: 13298 Checksum: 354
Satellite: DO-64 Catalog number: 32789 Epoch time: 10286.65339321 Element set: 0811 Inclination: 097.8891 deg RA of node: 350.4766 deg Eccentricity: 0.0014429 Arg of perigee: 258.6460 deg Mean anomaly: 101.3151 deg Mean motion: 14.82353885 rev/day Decay rate: 7.39e-06 rev/day^2 Epoch rev: 13305 Checksum: 322
Satellite: CO-66 Catalog number: 32791 Epoch time: 10286.70688673 Element set: 794 Inclination: 097.8828 deg RA of node: 349.7578 deg Eccentricity: 0.0014946 Arg of perigee: 258.3523 deg Mean anomaly: 101.5964 deg Mean motion: 14.81761531 rev/day Decay rate: 4.52e-06 rev/day^2 Epoch rev: 13300 Checksum: 344
Satellite: RS-30 Catalog number: 32953 Epoch time: 10287.57538513 Element set: 130 Inclination: 082.5020 deg RA of node: 315.4484 deg Eccentricity: 0.0018208 Arg of perigee: 198.0788 deg Mean anomaly: 161.9653 deg Mean motion: 12.43008361 rev/day Decay rate: 1.0e-07 rev/day^2 Epoch rev: 10857 Checksum: 282
Satellite: TACSAT-3 Catalog number: 35001 Epoch time: 10287.89566404 Element set: 406 Inclination: 040.4535 deg RA of node: 214.4134 deg Eccentricity: 0.0020601 Arg of perigee: 184.7983 deg Mean anomaly: 175.2631 deg Mean motion: 15.43092027 rev/day Decay rate: 8.295e-05 rev/day^2 Epoch rev: 7912 Checksum: 281
Satellite: PHARMSAT Catalog number: 35002 Epoch time: 10286.97231995 Element set: 0381 Inclination: 040.4691 deg RA of node: 217.6172 deg Eccentricity: 0.0023817 Arg of perigee: 181.5895 deg Mean anomaly: 178.4889 deg Mean motion: 15.43453753 rev/day Decay rate: 6.891e-05 rev/day^2 Epoch rev: 07900 Checksum: 325
Satellite: HAWKSAT1 Catalog number: 35003 Epoch time: 10286.92131691 Element set: 0415 Inclination: 040.4564 deg RA of node: 208.6373 deg Eccentricity: 0.0022066 Arg of perigee: 203.4124 deg Mean anomaly: 156.5714 deg Mean motion: 15.47926079 rev/day Decay rate: 1.6201e-04 rev/day^2 Epoch rev: 07910 Checksum: 268
Satellite: CP6 Catalog number: 35004 Epoch time: 10286.83742501 Element set: 0409 Inclination: 040.4578 deg RA of node: 207.0890 deg Eccentricity: 0.0021305 Arg of perigee: 207.8393 deg Mean anomaly: 152.1438 deg Mean motion: 15.49297498 rev/day Decay rate: 2.0308e-04 rev/day^2 Epoch rev: 07910 Checksum: 294
Satellite: AEROCUB3 Catalog number: 35005 Epoch time: 10287.73913098 Element set: 482 Inclination: 040.4661 deg RA of node: 190.2329 deg Eccentricity: 0.0024374 Arg of perigee: 241.6618 deg Mean anomaly: 118.2247 deg Mean motion: 15.62790341 rev/day Decay rate: 1.07674e-03 rev/day^2 Epoch rev: 7937 Checksum: 303
Satellite: CASTOR Catalog number: 35694 Epoch time: 10230.44082147 Element set: 655 Inclination: 051.5930 deg RA of node: 222.0149 deg Eccentricity: 0.0004218 Arg of perigee: 308.0851 deg Mean anomaly: 053.0105 deg Mean motion: 16.48877011 rev/day Decay rate: 7.179566e-02 rev/day^2 Epoch rev: 6110 Checksum: 273
Satellite: METEOR-M Catalog number: 35865 Epoch time: 10287.69567073 Element set: 741 Inclination: 098.7436 deg RA of node: 340.5536 deg Eccentricity: 0.0003062 Arg of perigee: 032.6187 deg Mean anomaly: 327.5158 deg Mean motion: 14.21831861 rev/day Decay rate: 1.76e-06 rev/day^2 Epoch rev: 5570 Checksum: 308
Satellite: RS-38 Catalog number: 35869 Epoch time: 10287.72444622 Element set: 754 Inclination: 098.7436 deg RA of node: 340.6222 deg Eccentricity: 0.0005312 Arg of perigee: 027.4668 deg Mean anomaly: 332.6765 deg Mean motion: 14.21990683 rev/day Decay rate: 1.77e-06 rev/day^2 Epoch rev: 5571 Checksum: 325
/EX